This is the latest recevied weather packets stored in our database for station/object HB9FHL-13. If no packets are shown the sender has not sent any weather packets the latest 10 day(s).
| Time | Temp. | Humidity | Pressure | Rain* | Wind** | Luminosity | Snow |
|---|---|---|---|---|---|---|---|
| 1777916329 | 14.44° C | - | 1013.7 hPa | 0 mm | - | - | - |
| 1777916028 | 13.89° C | - | 1019.1 hPa | 0 mm | - | - | - |
| 1777915728 | 15° C | - | 1014.5 hPa | 0 mm | - | - | - |
| 1777915427 | 13.89° C | - | 1010 hPa | 0 mm | - | - | - |
| 1777915125 | 13.89° C | - | 1016.7 hPa | 0 mm | - | - | - |
| 1777914825 | 14.44° C | - | 1013 hPa | 0 mm | - | - | - |
| 1777914524 | 13.89° C | - | 1010.3 hPa | 0 mm | - | - | - |
| 1777914222 | 13.89° C | - | 1013.5 hPa | 0 mm | - | - | - |
| 1777913920 | 14.44° C | - | 1009.6 hPa | 0 mm | - | - | - |
| 1777913652 | 13.89° C | - | 1016.5 hPa | 0 mm | - | - | - |
| 1777913616 | 13.89° C | - | 1016.5 hPa | 0 mm | - | - | - |
| 1777913316 | 14.44° C | - | 1018.7 hPa | 0 mm | - | - | - |
| 1777913146 | 13.89° C | - | 1014 hPa | 0 mm | - | - | - |
| 1777913145 | 15.56° C | - | 1009 hPa | 0 mm | - | - | - |
| 1777913145 | 13.89° C | - | 1009.9 hPa | 0 mm | - | - | - |
| 1777913015 | 13.89° C | - | 1014 hPa | 0 mm | - | - | - |
| 1777912716 | 13.89° C | - | 1009.9 hPa | 0 mm | - | - | - |
| 1777912414 | 15.56° C | - | 1009 hPa | 0 mm | - | - | - |
| 1777912114 | 15.56° C | - | 1013.9 hPa | 0 mm | - | - | - |
| 1777911813 | 14.44° C | - | 1024.4 hPa | 0 mm | - | - | - |
| 1777911512 | 17.22° C | - | 1009 hPa | 0 mm | - | - | - |
| 1777911210 | 17.22° C | - | 1012.8 hPa | 0 mm | - | - | - |
| 1777910910 | 17.22° C | - | 1026.2 hPa | 0 mm | - | - | - |
| 1777910604 | 17.22° C | - | 1018.7 hPa | 0 mm | - | - | - |
| 1777910303 | 17.22° C | - | 1008.7 hPa | 0 mm | - | - | - |
* Rain since midnight (hover to see other rain measurements)
** Current wind speed in m/s (hover to see current wind gust speed)